Regional Weather Roundup
Issued by NWS Columbia, SC

Home | Current Version | Previous Version | Text Only | Print | Product List | Glossary On
Versions: 1 2 3 4 5 6 7 8 9 10 11 12 13 14 15 16 17 18 19 20 21 22 23 24 25 26 27 28 29 30 31 32 33 34 35 36 37 38 39 40 41 42 43 44 45 46 47 48 49 50
000
ASUS42 KCAE 050610
RWRCAE
REGIONAL WEATHER ROUNDUP
NATIONAL WEATHER SERVICE COLUMBIA SC
200 AM EDT WED AUG 05 2015

NOTE: "FAIR" INDICATES FEW OR NO CLOUDS BELOW 12,000 FEET WITH NO
SIGNIFICANT WEATHER AND/OR OBSTRUCTIONS TO VISIBILITY.

NOT ALL STATIONS ARE QUALITY CONTROLLED BY THE NATIONAL
WEATHER SERVICE. USE DATA WITH CAUTION...ESPECIALLY
DEWPOINT OBSERVATIONS.

SCZ001>056-GAZ040-063>065-077-050700-
...UPSTATE SOUTH CAROLINA...

CITY           SKY/WX    TMP DP  RH WIND       PRES   REMARKS
ANDERSON       MOCLDY    76  67  73 CALM      30.03R
6HR MIN TEMP:  73; 6HR MAX TEMP:  93;

SPARTANBURG    MOCLDY    77  70  78 CALM      30.02S
CLEMSON        MOCLDY    80  68  66 CALM      30.04S
6HR MIN TEMP:  80; 6HR MAX TEMP:  91;

GREENVILLE     MOCLDY    83  63  50 CALM      30.04S
6HR MIN TEMP:  81; 6HR MAX TEMP:  90;

GREENWOOD      MOCLDY    74  65  73 SW8       30.02F
6HR MIN TEMP:  74; 6HR MAX TEMP:  90;

GREER          MOCLDY    78  65  63 CALM      30.01F
6HR MIN TEMP:  75; 6HR MAX TEMP:  89;

ROCK HILL      PTCLDY    75  69  81 N3        30.01F
6HR MIN TEMP:  74; 6HR MAX TEMP:  89; 6HR PCP: TRACE;

CHESTER        PTCLDY    82  63  51 N7        30.01F
LAURENS        MOCLDY    75  72  88 W3        30.02S


...CENTRAL SOUTH CAROLINA...

CITY           SKY/WX    TMP DP  RH WIND       PRES   REMARKS
COLUMBIA APT   PTCLDY    84  67  56 W10       29.97F
6HR MIN TEMP:  84; 6HR MAX TEMP:  97;

COLUMBIA OWENS PTCLDY    83  69  62 SW5       29.99F
6HR MIN TEMP:  83; 6HR MAX TEMP:  95;

DARLINGTON     CLEAR     79  72  78 SW3       29.99S
6HR MIN TEMP:  79; 6HR MAX TEMP:  91;

FLORENCE       CLEAR     80  76  87 SW6       29.98S
6HR MIN TEMP:  80; 6HR MAX TEMP:  91;

MCENTIRE ANGB  CLEAR     79  73  81 S6        29.99F
6HR MIN TEMP:  75; 6HR MAX TEMP:  88;

ORANGEBURG     CLEAR     78  74  87 SW6       30.01S
6HR MIN TEMP:  78; 6HR MAX TEMP:  90;

SUMTER SHAW    CLEAR     82  74  76 SW8       29.97S
6HR MIN TEMP:  82; 6HR MAX TEMP:  94;

NEWBERRY       MOCLDY    73  68  83 CALM      30.02F
AIKEN          FAIR      77  64  65 SW5       30.05S
BARNWELL       FAIR      81  73  78 SW5       30.02S
MANNING        RAIN      79  75  89 SW6       30.00S
CAMDEN         FAIR      81  72  74 CALM      29.99S
LANCASTER      PTCLDY    79  72  78 NW3       30.00S
WINNSBORO      PTCLDY    79  70  73 S5        29.99S


...EASTERN AND COASTAL SOUTH CAROLINA...

CITY           SKY/WX    TMP DP  RH WIND       PRES   REMARKS
MYRTLE BEACH   MOCLDY    81  75  83 S9        30.01F
6HR MIN TEMP:  81; 6HR MAX TEMP:  84;

N MYRTLE BCH   PTCLDY    81  77  88 SW14      29.99F
6HR MIN TEMP:  80; 6HR MAX TEMP:  84;

CONWAY         FAIR      77  77 100 S5        29.99F FOG
MARION         FAIR      77  75  94 CALM      29.98F
HARTSVILLE     FAIR      75  70  83 CALM      29.97F
FLORENCE       CLEAR     80  76  87 SW6       29.98S
6HR MIN TEMP:  80; 6HR MAX TEMP:  91;

DARLINGTON     CLEAR     79  72  78 SW3       29.99S
6HR MIN TEMP:  79; 6HR MAX TEMP:  91;

CHARLESTON APT CLEAR     78  75  90 W8        30.01S
6HR MIN TEMP:  78; 6HR MAX TEMP:  80;

MOUNT PLEASANT FAIR      82  79  89 SW8       30.01S
WALTERBORO     CLEAR     81  72  74 SW6       30.02F
BEAUFORT       CLEAR     79  72  79 W8        30.02F
6HR MIN TEMP:  79; 6HR MAX TEMP:  86;



...EASTERN GEORGIA...

CITY           SKY/WX    TMP DP  RH WIND       PRES   REMARKS
AUGUSTA BUSH F PTCLDY    78  71  79 CALM      30.00S
6HR MIN TEMP:  78; 6HR MAX TEMP:  87;

AUGUSTA DANIEL PTCLDY    82  70  66 SW5       30.02S
6HR MIN TEMP:  82; 6HR MAX TEMP:  93;

THOMSON        PTCLDY    81  73  78 CALM      30.06S
6HR MIN TEMP:  81; 6HR MAX TEMP:  94;

WASHINGTON     FAIR      81  72  74 W5        30.03S
SYLVANIA       PTCLDY    79  75  89 W3        30.04S
6HR MIN TEMP:  79; 6HR MAX TEMP:  90;

STATESBORO     PTCLDY    77  76  95 SW6       30.03F
6HR MIN TEMP:  77; 6HR MAX TEMP:  89;

SAVANNAH       PTCLDY    78  71  79 SW6       30.04S
6HR MIN TEMP:  77; 6HR MAX TEMP:  87;



...SOUTHERN NORTH CAROLINA...

CITY           SKY/WX    TMP DP  RH WIND       PRES   REMARKS
CHARLOTTE      PTCLDY    76  66  71 CALM      30.02S
6HR MIN TEMP:  72; 6HR MAX TEMP:  89;

MONROE         CLEAR     80  67  64 NW3       30.00S
6HR MIN TEMP:  78; 6HR MAX TEMP:  89;

WADESBORO      CLEAR     77  69  75 CALM      29.98S
6HR MIN TEMP:  75; 6HR MAX TEMP:  94;

ROCKINGHAM     CLEAR     79  73  84 CALM      29.98S
6HR MIN TEMP:  79; 6HR MAX TEMP:  91;

RUTHERFORDTON  MOCLDY    71  66  85 NW5       30.04F
6HR MIN TEMP:  70; 6HR MAX TEMP:  85;

ASHEVILLE      PTCLDY    68  64  87 CALM      30.13F
6HR MIN TEMP:  68; 6HR MAX TEMP:  80;


$$



USA.gov is the U.S. government's official web portal to all federal, state and local government web resources and services.